Location: Pian di Sc�
(43.6333°N, 11.5500°E)
Time: 14:25:58
(UTC+00:00)

NOSS 3-1 (C) - Pass Details

Date: 07 August 2020
Orbit: 743 x 1466 km, 63.4° (Epoch: 22 September)

Event Time Altitude Azimuth Distance (km) Brightness Sun altitude
Exits shadow 02:17:32 30° 215° (SW) 1,434 3.8 -17.6°
Maximum altitude 02:20:23 89° 135° (SE) 863 3.2 -17.2°
Drops below altitude 10° 02:26:38 10° 37° (NE) 2,722 7.1 -16.4°
Sets 02:29:26 0° 38° (NE) 3,787 8.3 -16.0°
